This is the latest recevied weather packets stored in our database for station/object W1HVD. If no packets are shown the sender has not sent any weather packets the latest 10 day(s).
| Time | Temp. | Humidity | Pressure | Rain* | Wind** | Luminosity | Snow |
|---|---|---|---|---|---|---|---|
| 1777837639 | 11.67° C | 45% | 1005.9 hPa | 0 mm | - | 240 W/m² | - |
| 1777837335 | 11.67° C | 44% | 1005.8 hPa | 0 mm | - | 158 W/m² | - |
| 1777837031 | 11.67° C | 44% | 1005.9 hPa | 0 mm | - | 133 W/m² | - |
| 1777836727 | 11.67° C | 45% | 1005.8 hPa | 0 mm | - | 126 W/m² | - |
| 1777836423 | 11.67° C | 45% | 1005.8 hPa | 0 mm | - | 92 W/m² | - |
| 1777836118 | 11.67° C | 44% | 1006 hPa | 0 mm | - | 86 W/m² | - |
| 1777835815 | 12.22° C | 43% | 1005.7 hPa | 0 mm | - | 108 W/m² | - |
| 1777835512 | 12.78° C | 45% | 1005.8 hPa | 0 mm | - | 225 W/m² | - |
| 1777835209 | 12.78° C | 43% | 1005.8 hPa | 0 mm | - | 384 W/m² | - |
| 1777834906 | 12.22° C | 43% | 1005.7 hPa | 0 mm | - | 393 W/m² | - |
| 1777834603 | 11.67° C | 45% | 1006 hPa | 0 mm | - | 344 W/m² | - |
| 1777834298 | 11.67° C | 48% | 1005.9 hPa | 0 mm | - | 281 W/m² | - |
| 1777833993 | 11.11° C | 49% | 1006 hPa | 0 mm | - | 225 W/m² | - |
| 1777833690 | 11.11° C | 48% | 1006 hPa | 0 mm | - | 157 W/m² | - |
| 1777833386 | 11.11° C | 49% | 1006.2 hPa | 0 mm | - | 69 W/m² | - |
| 1777833084 | 11.11° C | 48% | 1006.1 hPa | 0 mm | - | 71 W/m² | - |
| 1777832782 | 11.11° C | 46% | 1006 hPa | 0 mm | - | 65 W/m² | - |
| 1777832480 | 11.67° C | 47% | 1005.9 hPa | 0 mm | - | 79 W/m² | - |
| 1777832177 | 12.22° C | 44% | 1005.7 hPa | 0 mm | - | 186 W/m² | - |
| 1777831873 | 12.22° C | 44% | 1005.8 hPa | 0 mm | - | 272 W/m² | - |
| 1777831571 | 12.22° C | 46% | 1005.7 hPa | 0 mm | - | 382 W/m² | - |
| 1777831269 | 12.22° C | 49% | 1005.9 hPa | 0 mm | - | 360 W/m² | - |
| 1777830965 | 11.67° C | 49% | 1005.8 hPa | 0 mm | - | 354 W/m² | - |
| 1777830662 | 11.67° C | 53% | 1005.9 hPa | 0 mm | - | 356 W/m² | - |
| 1777830359 | 10.56° C | 53% | 1005.7 hPa | 0 mm | - | 294 W/m² | - |
* Rain latest hour (hover to see other rain measurements)
** Current wind speed in m/s (hover to see current wind gust speed)